DW1347 Weather Reports


time (UTC)temp
C
wind
direction
speed
KPH
gust
KPH
rain 1hr
cm
rain 24hr
cm
rain mn
cm
humidity
%
barometer
mb
20260901095242 10 201 0.0 0.0 0.00 0.10 0.10 99 1030.4
20260901094737 10 189 0.0 1.6 0.00 0.10 0.10 99 1030.8
20260901094232 10 190 1.6 3.2 0.00 0.10 0.10 99 1030.8
20260901093727 10 186 0.0 0.0 0.00 0.10 0.10 99 1030.8
20260901093225 10 244 0.0 0.0 0.00 0.10 0.10 99 1030.8
20260901092722 10 220 0.0 0.0 0.00 0.10 0.10 99 1030.7
20260901092218 10 214 0.0 0.0 0.00 0.10 0.10 99 1030.7
20260901091713 10 224 0.0 1.6 0.00 0.10 0.10 99 1031.0
20260901091208 10 202 0.0 0.0 0.00 0.10 0.10 99 1030.8
20260901090702 10 219 0.0 0.0 0.00 0.10 0.10 99 1030.9
20260901090158 10 221 0.0 0.0 0.00 0.10 0.10 99 1030.9
20260901085654 10 196 0.0 0.0 0.00 0.10 0.10 99 1031.0
20260901085149 10 219 0.0 0.0 0.00 0.10 0.10 99 1030.8
20260901084645 10 156 1.6 3.2 0.00 0.10 0.10 99 1030.7
20260901084142 10 217 0.0 0.0 0.00 0.10 0.10 99 1031.2
20260901083641 10 221 0.0 0.0 0.00 0.10 0.10 99 1031.0
20260901083140 10 226 0.0 0.0 0.00 0.10 0.10 99 1030.8
20260901082634 10 195 0.0 0.0 0.00 0.10 0.10 99 1031.2
20260901082130 11 213 0.0 0.0 0.00 0.10 0.10 99 1031.3
20260901081625 11 209 0.0 0.0 0.00 0.10 0.10 99 1031.3
20260901081120 11 216 0.0 0.0 0.00 0.10 0.10 99 1031.4
20260901080620 11 196 1.6 1.6 0.00 0.10 0.10 99 1031.3
20260901080118 11 219 0.0 0.0 0.00 0.10 0.10 99 1031.7
20260901075614 11 222 0.0 0.0 0.00 0.10 0.10 99 1031.4
20260901075114 11 206 0.0 0.0 0.00 0.10 0.10 99 1031.7
20260901074614 11 221 0.0 1.6 0.00 0.10 0.10 99 1031.8
20260901074114 11 206 1.6 1.6 0.00 0.10 0.10 99 1031.9
20260901073611 11 201 0.0 0.0 0.00 0.10 0.10 99 1031.8
20260901073105 11 215 0.0 0.0 0.00 0.10 0.10 99 1031.8
20260901072601 11 219 0.0 0.0 0.00 0.10 0.10 99 1031.8
20260901072055 11 237 1.6 1.6 0.00 0.10 0.10 99 1032.1
20260901071555 11 183 3.2 3.2 0.00 0.10 0.10 99 1031.5
20260901071055 11 201 0.0 0.0 0.00 0.10 0.10 99 1031.9
20260901070549 11 104 1.6 3.2 0.00 0.10 0.10 99 1031.9
20260901070044 11 227 0.0 0.0 0.00 0.10 0.10 99 1031.4
20260901065538 11 211 0.0 0.0 0.00 0.10 0.10 99 1031.9
20260901065033 11 222 0.0 0.0 0.00 0.10 0.10 99 1032.1
20260901064531 11 188 0.0 0.0 0.00 0.10 0.10 99 1032.2
20260901064027 11 224 0.0 0.0 0.18 0.10 0.10 99 1032.2
20260901063524 11 222 0.0 0.0 0.48 0.10 0.10 99 1032.1
20260901063019 11 260 1.6 3.2 0.43 0.08 0.08 99 1032.6
20260901062515 11 232 1.6 3.2 0.13 0.03 0.03 99 1032.6
20260901062011 11 228 1.6 1.6 0.00 0.00 0.00 99 1032.1
20260901061507 11 224 0.0 0.0 0.00 0.00 0.00 99 1031.9
20260901061006 11 215 0.0 0.0 0.00 0.00 0.00 99 1031.8
20260901060502 11 215 0.0 0.0 0.00 0.00 0.00 99 1032.1
20260901060002 11 221 0.0 0.0 0.00 0.18 0.18 99 1031.9
20260901055458 11 212 3.2 3.2 0.00 0.18 0.18 99 1032.1
20260901054954 11 235 0.0 0.0 0.18 0.18 0.18 99 1032.1
20260901054451 11 188 0.0 0.0 0.18 0.18 0.18 99 1032.2
20260901053947 11 170 3.2 3.2 0.00 0.15 0.15 99 1032.2
20260901053442 11 204 0.0 0.0 0.00 0.15 0.15 99 1032.6
20260901052938 10 218 0.0 0.0 0.00 0.15 0.15 99 1031.9
20260901052433 10 188 0.0 0.0 0.00 0.15 0.15 99 1031.9
20260901051931 10 220 0.0 0.0 0.00 0.15 0.15 99 1031.9
20260901051427 11 186 1.6 1.6 0.00 0.15 0.15 99 1031.7
20260901050921 11 213 0.0 0.0 0.00 0.15 0.15 99 1032.2
20260901050418 11 214 0.0 0.0 0.00 0.15 0.15 99 1031.9
20260901045917 11 205 0.0 0.0 0.00 0.15 0.15 99 1032.1
20260901045412 11 209 0.0 0.0 0.00 0.15 0.15 99 1032.6
20260901044907 11 201 0.0 1.6 0.00 0.15 0.15 99 1032.2
20260901044402 11 226 0.0 0.0 0.00 0.15 0.15 99 1032.2
20260901043858 11 221 0.0 0.0 0.00 0.15 0.15 99 1032.2
20260901043354 11 221 0.0 0.0 0.00 0.15 0.15 99 1032.1
20260901042849 11 195 1.6 1.6 0.00 0.15 0.15 99 1032.3
20260901042343 11 202 0.0 1.6 0.00 0.15 0.15 99 1032.4
20260901041838 11 219 0.0 0.0 0.00 0.15 0.15 99 1032.2
20260901041333 11 222 0.0 0.0 0.00 0.15 0.15 99 1032.2
20260901040828 11 226 1.6 3.2 0.00 0.15 0.15 99 1032.3
20260901040327 11 209 0.0 1.6 0.00 0.15 0.15 99 1032.3
20260901035826 11 214 1.6 1.6 0.00 0.15 0.15 99 1032.4
20260901035325 11 199 1.6 1.6 0.00 0.15 0.15 99 1032.4
20260901034824 11 159 1.6 1.6 0.00 0.15 0.15 99 1031.9
20260901034320 12 174 1.6 1.6 0.00 0.15 0.15 99 1032.4
20260901033819 12 213 1.6 1.6 0.00 0.15 0.15 99 1032.2
20260901033318 12 211 3.2 3.2 0.00 0.15 0.15 99 1032.2
20260901032818 12 186 3.2 3.2 0.00 0.15 0.15 99 1032.4
20260901032317 12 198 1.6 3.2 0.00 0.15 0.15 99 1032.3
20260901031812 12 178 3.2 3.2 0.00 0.15 0.15 99 1032.1
20260901031308 12 15 3.2 4.8 0.00 0.15 0.15 99 1031.8
20260901030807 12 243 4.8 4.8 0.00 0.15 0.15 99 1031.7
20260901030303 12 237 4.8 4.8 0.00 0.15 0.15 99 1031.8
20260901025802 12 224 0.0 0.0 0.00 0.15 0.15 99 1032.1
20260901025257 12 208 0.0 0.0 0.00 0.15 0.15 99 1032.1
20260901024752 12 184 1.6 3.2 0.00 0.15 0.15 99 1032.2
20260901024251 12 234 1.6 1.6 0.13 0.15 0.15 99 1032.6
20260901023749 12 176 1.6 1.6 0.13 0.15 0.15 98 1032.8
20260901023244 12 219 0.0 0.0 0.18 0.13 0.13 98 1033.2
20260901022740 12 179 1.6 1.6 0.18 0.13 0.13 97 1033.2
20260901022235 12 184 3.2 3.2 0.18 0.10 0.10 96 1033.3
20260901021730 13 174 1.6 1.6 0.30 0.10 0.10 95 1033.2
20260901021226 13 203 1.6 1.6 0.30 0.08 0.08 92 1033.4
20260901020721 14 189 3.2 4.8 0.30 0.05 0.05 89 1033.3
20260901020216 15 181 6.4 11.3 0.13 0.03 0.03 83 1033.2
20260901015711 15 219 0.0 1.6 0.00 0.00 0.00 84 1032.7
20260901015206 15 211 1.6 1.6 0.00 0.00 0.00 82 1032.6
20260901014701 15 219 0.0 0.0 0.00 0.00 0.00 81 1032.3
20260901014157 15 215 0.0 0.0 0.00 0.00 0.00 81 1032.2
20260901013653 15 224 0.0 0.0 0.00 0.00 0.00 78 1032.2
20260901013148 15 213 1.6 1.6 0.00 0.00 0.00 79 1031.9
20260901012642 15 214 1.6 1.6 0.00 0.00 0.00 79 1032.1
20260901012138 15 215 0.0 0.0 0.00 0.00 0.00 81 1032.2
20260901011634 16 216 0.0 1.6 0.00 0.00 0.00 79 1031.7
20260901011132 16 196 4.8 8.0 0.00 0.00 0.00 75 1031.4
20260901010627 18 160 3.2 3.2 0.00 0.00 0.00 63 1031.0
20260901010127 18 172 3.2 3.2 0.00 0.00 0.00 61 1031.3
20260901005626 18 163 1.6 3.2 0.00 0.00 0.00 59 1031.0
20260901005122 19 192 3.2 3.2 0.00 0.00 0.00 57 1030.7
20260901004621 19 71 3.2 4.8 0.00 0.00 0.00 56 1030.9
20260901004116 20 206 1.6 3.2 0.00 0.00 0.00 55 1031.0
20260901003611 20 8 6.4 11.3 0.00 0.00 0.00 52 1030.7
20260901003110 20 9 4.8 8.0 0.00 0.00 0.00 49 1030.4
20260901002610 21 256 1.6 3.2 0.00 0.00 0.00 48 1030.4
20260901002104 21 8 6.4 9.7 0.00 0.00 0.00 48 1030.7
20260901001559 21 309 1.6 3.2 0.00 0.00 0.00 48 1030.5
20260901001054 21 203 1.6 3.2 0.00 0.00 0.00 47 1030.7
20260901000549 21 183 1.6 1.6 0.00 0.00 0.00 47 1030.4
20260901000045 21 206 0.0 1.6 0.00 0.00 0.00 46 1030.9
20260831235538 21 192 0.0 0.0 0.00 0.00 0.00 46 1030.7
20260831235029 21 17 6.4 8.0 0.00 0.00 0.00 45 1030.7
20260831234522 21 271 3.2 4.8 0.00 0.00 0.00 44 1030.3
20260831234019 21 206 1.6 1.6 0.00 0.00 0.00 45 1030.5
20260831233513 21 219 0.0 0.0 0.00 0.00 0.00 46 1030.4
20260831233009 21 173 0.0 0.0 0.00 0.00 0.00 47 1030.5
20260831232504 21 219 0.0 0.0 0.00 0.00 0.00 46 1030.4
20260831232000 21 199 1.6 1.6 0.00 0.00 0.00 47 1030.4
20260831231456 21 262 4.8 4.8 0.00 0.00 0.00 46 1030.5
20260831230951 21 258 1.6 3.2 0.00 0.00 0.00 47 1030.7
20260831230446 22 66 4.8 9.7 0.00 0.00 0.00 45 1030.4
20260831225941 22 230 1.6 3.2 0.00 0.00 0.00 45 1030.4
20260831225437 22 220 0.0 0.0 0.00 0.00 0.00 44 1030.5
20260831224932 22 196 4.8 8.0 0.00 0.00 0.00 44 1030.7
20260831224431 22 337 3.2 3.2 0.00 0.00 0.00 44 1030.8
20260831223926 22 321 3.2 4.8 0.00 0.00 0.00 44 1030.5
20260831223422 22 205 0.0 0.0 0.00 0.00 0.00 45 1030.7
20260831222918 22 54 6.4 9.7 0.00 0.00 0.00 45 1030.7
20260831222414 22 201 1.6 1.6 0.00 0.00 0.00 46 1030.9
20260831221908 22 128 3.2 4.8 0.00 0.00 0.00 45 1030.7
20260831221404 22 347 4.8 8.0 0.00 0.00 0.00 45 1030.7
20260831220859 22 139 6.4 8.0 0.00 0.00 0.00 44 1030.7
20260831220355 23 6 3.2 3.2 0.00 0.00 0.00 44 1031.0
20260831215850 22 33 1.6 3.2 0.00 0.00 0.00 46 1030.9
20260831215345 22 204 1.6 3.2 0.00 0.00 0.00 47 1031.0
20260831214842 22 357 8.0 11.3 0.00 0.00 0.00 46 1030.5
20260831214340 22 126 3.2 3.2 0.00 0.00 0.00 46 1031.0
20260831213839 22 221 0.0 1.6 0.00 0.00 0.00 45 1031.0
20260831213336 22 98 4.8 8.0 0.00 0.00 0.00 45 1030.9
20260831212831 22 212 1.6 3.2 0.00 0.00 0.00 46 1031.0
20260831212328 22 210 3.2 4.8 0.00 0.00 0.00 46 1030.9
20260831211826 22 49 6.4 8.0 0.00 0.00 0.00 45 1031.0
20260831211322 23 223 3.2 3.2 0.00 0.00 0.00 41 1031.3
20260831210821 22 263 3.2 4.8 0.00 0.00 0.00 40 1031.2
20260831210317 23 228 1.6 3.2 0.00 0.00 0.00 41 1031.2
20260831205812 23 163 1.6 3.2 0.00 0.00 0.00 38 1031.5
20260831205308 23 161 0.0 1.6 0.00 0.00 0.00 39 1031.4
20260831204807 23 291 1.6 1.6 0.00 0.00 0.00 39 1031.5
20260831204307 23 269 0.0 1.6 0.00 0.00 0.00 41 1031.5
20260831203806 23 299 1.6 3.2 0.00 0.00 0.00 41 1031.7
20260831203301 23 4 6.4 8.0 0.00 0.00 0.00 39 1031.8
20260831202759 22 239 1.6 1.6 0.00 0.00 0.00 41 1031.7
20260831202254 22 165 1.6 3.2 0.00 0.00 0.00 41 1031.5
20260831201748 22 56 3.2 4.8 0.00 0.00 0.00 41 1031.7
20260831201247 22 118 1.6 3.2 0.00 0.00 0.00 42 1031.8
20260831200743 22 307 4.8 8.0 0.00 0.00 0.00 41 1032.1
20260831200238 23 186 8.0 14.5 0.00 0.00 0.00 41 1032.2
20260831195733 23 271 1.6 3.2 0.00 0.00 0.00 41 1032.1
20260831195229 22 23 6.4 11.3 0.00 0.00 0.00 41 1031.9
20260831194724 22 278 1.6 3.2 0.00 0.00 0.00 41 1032.2
20260831194220 22 2 3.2 3.2 0.00 0.00 0.00 43 1032.3
20260831193713 22 149 4.8 8.0 0.00 0.00 0.00 43 1031.8
20260831193208 22 150 1.6 3.2 0.00 0.00 0.00 44 1032.3
20260831192703 22 21 3.2 4.8 0.00 0.00 0.00 44 1032.3
20260831192159 22 312 1.6 1.6 0.00 0.00 0.00 44 1032.6
20260831191654 22 129 1.6 3.2 0.00 0.00 0.00 44 1032.4
20260831191150 22 289 3.2 3.2 0.00 0.00 0.00 44 1032.6
20260831190640 22 25 3.2 3.2 0.00 0.00 0.00 45 1032.6
20260831190139 22 218 1.6 3.2 0.00 0.00 0.00 45 1032.6
20260831185634 22 229 3.2 4.8 0.00 0.00 0.00 42 1032.7
20260831185129 22 229 1.6 1.6 0.00 0.00 0.00 42 1032.8
20260831184624 22 232 1.6 3.2 0.00 0.00 0.00 41 1032.8
20260831184120 22 155 8.0 9.7 0.00 0.00 0.00 41 1032.9
20260831183619 22 230 0.0 0.0 0.00 0.00 0.00 40 1032.8
20260831183118 22 223 0.0 1.6 0.00 0.00 0.00 43 1033.1
20260831182617 22 230 1.6 1.6 0.00 0.00 0.00 41 1033.1
20260831182114 21 230 1.6 1.6 0.00 0.00 0.00 43 1033.1
20260831181613 21 271 1.6 1.6 0.00 0.00 0.00 41 1033.1
20260831181108 22 219 0.0 0.0 0.00 0.00 0.00 44 1032.8
20260831180603 22 229 1.6 3.2 0.00 0.00 0.00 43 1032.9
20260831180058 22 242 4.8 4.8 0.00 0.00 0.00 43 1032.9
20260831175553 22 217 0.0 1.6 0.00 0.00 0.00 41 1033.4
20260831175050 22 177 3.2 3.2 0.00 0.00 0.00 42 1033.1
20260831174544 21 225 3.2 3.2 0.00 0.00 0.00 44 1033.2
20260831174044 21 218 3.2 3.2 0.00 0.00 0.00 44 1033.2
20260831173542 21 223 0.0 0.0 0.00 0.00 0.00 46 1033.3
20260831173039 21 220 1.6 1.6 0.00 0.00 0.00 47 1033.2
20260831172534 21 209 4.8 4.8 0.00 0.00 0.00 45 1033.2
20260831172029 21 231 1.6 3.2 0.00 0.00 0.00 46 1033.2
20260831171524 21 234 1.6 3.2 0.00 0.00 0.00 53 1033.1
20260831171021 21 148 3.2 4.8 0.00 0.00 0.00 48 1032.9
20260831170517 21 349 3.2 3.2 0.00 0.00 0.00 43 1033.2
20260831170015 21 356 1.6 1.6 0.00 0.00 0.00 42 1033.2
20260831165514 21 67 0.0 1.6 0.00 0.00 0.00 42 1033.4
20260831165011 21 316 4.8 4.8 0.00 0.00 0.00 47 1033.7
20260831164507 21 231 0.0 1.6 0.00 0.00 0.00 46 1033.2
20260831164002 21 350 4.8 4.8 0.00 0.00 0.00 46 1033.1
20260831163457 21 0 4.8 4.8 0.00 0.00 0.00 47 1033.2
20260831162956 21 344 6.4 8.0 0.00 0.00 0.00 48 1033.3
20260831162452 21 283 3.2 3.2 0.00 0.00 0.00 48 1033.1
20260831161949 21 270 1.6 3.2 0.00 0.00 0.00 48 1033.1
20260831161446 20 246 4.8 8.0 0.00 0.00 0.00 50 1033.1
20260831160942 20 219 0.0 0.0 0.00 0.00 0.00 50 1033.1
20260831160441 20 39 1.6 1.6 0.00 0.00 0.00 52 1033.2
20260831155936 19 231 3.2 3.2 0.00 0.00 0.00 53 1032.6
20260831155436 19 4 3.2 3.2 0.00 0.00 0.00 53 1033.2
20260831154932 19 344 3.2 3.2 0.00 0.00 0.00 54 1032.6
20260831154428 18 221 0.0 1.6 0.00 0.00 0.00 54 1033.1
20260831153926 18 358 3.2 3.2 0.00 0.00 0.00 55 1032.8
20260831153417 19 328 1.6 1.6 0.00 0.00 0.00 53 1033.1
20260831152913 18 148 4.8 4.8 0.00 0.00 0.00 53 1033.1
20260831152408 19 221 0.0 0.0 0.00 0.00 0.00 53 1032.6
20260831151903 18 266 1.6 3.2 0.00 0.00 0.00 53 1032.8
20260831151402 18 275 3.2 3.2 0.00 0.00 0.00 52 1032.7
20260831150857 18 25 1.6 1.6 0.00 0.00 0.00 53 1033.1
20260831150353 18 355 1.6 3.2 0.00 0.00 0.00 54 1032.8
20260831145852 18 228 0.0 0.0 0.00 0.00 0.00 51 1032.7
20260831145349 18 234 0.0 1.6 0.00 0.00 0.00 52 1032.7
20260831144844 18 194 0.0 0.0 0.00 0.00 0.00 55 1032.9
20260831144340 17 242 0.0 1.6 0.00 0.00 0.00 56 1032.8
20260831143835 18 261 0.0 1.6 0.00 0.00 0.00 58 1033.1
20260831143330 17 205 0.0 0.0 0.00 0.00 0.00 61 1033.1
20260831142825 17 216 0.0 0.0 0.00 0.00 0.00 62 1032.8
20260831142320 17 216 0.0 0.0 0.00 0.00 0.00 59 1032.8
20260831141820 16 222 0.0 0.0 0.00 0.00 0.00 60 1032.8
20260831141315 16 220 0.0 0.0 0.00 0.00 0.00 60 1032.7
20260831140810 16 222 0.0 0.0 0.00 0.00 0.00 60 1032.9
20260831140304 16 215 0.0 0.0 0.00 0.00 0.00 62 1032.3
20260831135802 15 210 0.0 0.0 0.00 0.00 0.00 63 1032.7
20260831135258 15 190 0.0 0.0 0.00 0.00 0.00 65 1032.4
20260831134753 14 206 0.0 0.0 0.00 0.00 0.00 65 1032.2
20260831134250 13 194 0.0 1.6 0.00 0.00 0.00 66 1032.4
20260831133748 13 226 0.0 0.0 0.00 0.00 0.00 67 1032.3
20260831133248 13 228 0.0 0.0 0.00 0.00 0.00 68 1032.6
20260831132744 12 203 0.0 1.6 0.00 0.00 0.00 66 1032.3
20260831132239 12 209 0.0 0.0 0.00 0.00 0.00 66 1032.2
20260831131738 12 177 3.2 3.2 0.00 0.00 0.00 68 1032.1
20260831131235 12 220 0.0 0.0 0.00 0.00 0.00 69 1031.9
20260831130730 11 196 1.6 1.6 0.00 0.00 0.00 69 1031.8
20260831130225 11 187 1.6 1.6 0.00 0.00 0.00 71 1031.8
20260831125723 11 218 0.0 0.0 0.00 0.00 0.00 71 1031.7
20260831125220 11 193 1.6 1.6 0.00 0.00 0.00 72 1031.9
20260831124714 11 199 0.0 0.0 0.00 0.00 0.00 70 1031.5
20260831124211 11 196 0.0 1.6 0.00 0.00 0.00 70 1031.8
20260831123710 11 216 1.6 1.6 0.00 0.00 0.00 72 1031.7
20260831123209 11 224 0.0 0.0 0.00 0.00 0.00 72 1031.4
20260831122704 11 215 0.0 0.0 0.00 0.00 0.00 74 1031.4
20260831122200 11 204 0.0 0.0 0.00 0.00 0.00 73 1031.5
20260831121659 11 215 0.0 0.0 0.00 0.00 0.00 72 1031.2
20260831121156 11 149 4.8 4.8 0.00 0.00 0.00 74 1031.4
20260831120651 11 226 0.0 0.0 0.00 0.00 0.00 72 1031.4
20260831120145 11 203 1.6 1.6 0.00 0.00 0.00 70 1031.3
20260831115641 11 195 1.6 1.6 0.00 0.00 0.00 74 1031.4
20260831115136 11 219 0.0 0.0 0.00 0.00 0.00 74 1031.4
20260831114635 11 172 3.2 3.2 0.00 0.00 0.00 74 1031.3
20260831114101 12 180 1.6 3.2 0.00 0.00 0.00 69 1030.9
20260831113600 12 180 1.6 3.2 0.00 0.00 0.00 69 1030.9
20260831113056 12 181 3.2 3.2 0.00 0.00 0.00 71 1030.9
20260831112555 12 194 0.0 1.6 0.00 0.00 0.00 68 1031.3
20260831112050 11 213 0.0 1.6 0.00 0.00 0.00 69 1031.3
20260831111546 11 213 0.0 0.0 0.00 0.00 0.00 74 1031.3
20260831111042 11 234 0.0 0.0 0.00 0.00 0.00 74 1031.2
20260831110537 11 151 3.2 3.2 0.00 0.00 0.00 78 1031.0
20260831110032 11 223 1.6 1.6 0.00 0.00 0.00 72 1031.0
20260831105531 11 199 0.0 0.0 0.00 0.00 0.00 76 1031.2
20260831105026 11 204 0.0 0.0 0.00 0.00 0.00 75 1030.9
20260831104522 11 219 0.0 0.0 0.00 0.00 0.00 75 1031.3
20260831104018 11 265 0.0 0.0 0.00 0.00 0.00 74 1030.9
20260831103513 11 207 1.6 1.6 0.00 0.00 0.00 73 1031.0
20260831103010 11 201 0.0 0.0 0.00 0.00 0.00 75 1031.0
20260831102509 12 231 1.6 1.6 0.00 0.00 0.00 72 1030.7
20260831102004 12 196 0.0 0.0 0.00 0.00 0.00 69 1030.9
20260831101459 12 231 1.6 1.6 0.00 0.00 0.00 71 1030.9
20260831100955 11 188 1.6 3.2 0.00 0.00 0.00 71 1030.8
20260831100450 11 226 0.0 0.0 0.00 0.00 0.00 72 1030.7
20260831095946 12 212 1.6 1.6 0.00 0.00 0.00 71 1030.7